SCP
0 0 0 0 0 0 0 0 0 0 0 0 0 0 1 1 2 2 2 3 3 4 4 4 3 3 2 2 2 2 2 2 2 2 2 1 1 1 1 1 1 1 1 1
0 0 0 0 0 0 0 0 0 0 0 0 0 0 0 1 1 1 2 3 4 5 5 5 5 4 3 3 3 3 3 3 2 2 2 1 1 1 1 1 1 0 0 0
0 0 0 0 0 0 0 0 0 0 0 0 0 0 0 0 0 1 2 3 4 5 6 6 5 5 4 4 4 4 4 3 2 2 1 1 1 1 1 0 0 0 0 0
0 0 0 0 0 0 0 0 0 0 0 0 0 0 0 0 0 1 1 2 4 6 6 6 5 4 4 4 4 3 3 2 2 1 1 1 1 1 0 0 0 0 0 0
0 0 0 0 0 0 0 0 0 0 0 0 0 0 0 0 1 1 1 1 3 5 5 4 3 2 2 2 2 2 2 1 1 1 1 1 0 0 0 0 0 0 0 0
0 0 0 0 0 0 0 0 0 0 0 0 0 0 0 1 1 1 1 2 3 3 3 2 2 1 1 1 1 1 1 1 1 0 0 0 0 0 0 0 0 0 0 0
0 0 0 0 0 0 0 0 0 0 0 0 0 0 0 1 1 1 1 1 2 2 2 1 1 1 1 1 1 1 0 0 0 0 0 0 0 0 0 0 0 0 0 0
0 0 0 0 0 0 0 0 0 0 0 0 0 0 0 0 0 0 0 1 1 1 1 1 1 1 1 1 1 1 0 0 0 0 0 0 0 0 0 0 0 0 0 0
0 0 0 0 0 0 0 0 0 0 0 0 0 0 0 0 0 0 0 0 0 0 0 0 0 0 0 0 0 0 0 0 0 0 0 0 0 0 0 0 0 0 0 0
0 0 0 0 0 0 0 0 0 0 0 0 0 0 0 0 0 0 0 0 0 0 0 0 0 0 0 0 0 0 0 0 0 0 0 0 0 0 0 0 0 0 0 0
0 0 0 0 0 0 0 0 0 0 0 0 0 0 0 0 0 0 0 0 0 0 0 0 0 0 0 0 0 0 0 0 0 0 0 0 0 0 0 0 0 0 0 0
0 0 0 0 0 0 0 0 0 0 0 0 0 0 0 0 0 0 0 0 0 0 0 0 0 0 0 0 0 0 0 0 0 0 0 0 0 0 0 0 0 0 0 0
0 0 0 0 0 0 0 0 0 0 0 0 0 0 0 0 0 0 0 0 0 0 0 0 0 0 0 0 0 0 0 0 0 0 0 0 0 0 0 0 0 0 0 0
0 0 0 0 0 0 0 0 0 0 0 0 0 0 0 0 0 0 0 0 0 0 0 0 0 0 0 0 0 0 0 0 0 0 0 0 0 0 0 0 0 0 0 0
0 0 0 0 0 0 0 0 0 0 0 0 0 0 0 0 0 0 0 0 0 0 0 0 0 0 0 0 0 0 0 0 0 0 0 0 0 0 0 0 0 0 0 0
0 0 0 0 0 0 0 0 0 0 0 0 0 0 0 0 0 0 0 0 0 0 0 0 0 0 0 0 0 0 0 0 0 0 0 0 0 0 0 0 0 0 0 0
0 0 0 0 0 0 0 0 0 0 0 0 0 0 0 0 0 0 0 0 0 0 0 0 0 0 0 0 0 0 0 0 0 0 0 0 0 0 0 0 0 0 0 0
0 0 0 0 0 0 0 0 0 0 0 0 0 0 0 0 0 0 0 0 0 0 0 0 0 0 0 0 0 0 0 0 0 0 0 0 0 0 0 0 0 0 0 0
0 0 0 0 0 0 0 0 0 0 0 0 0 0 0 0 0 0 0 0 0 0 0 0 0 0 -0 0 0 0 0 0 0 0 0 0 0 0 0 0 0 0 0 0
0 0 0 0 0 0 0 0 0 0 0 0 0 0 0 0 0 0 0 0 0 0 0 0 0 -0 -0 0 0 0 0 0 0 0 0 0 0 0 0 0 0 0 0 0
0 0 0 0 0 0 0 0 0 0 0 0 0 0 0 0 0 0 0 0 0 0 0 0 0 0 0 0 0 0 0 0 0 0 0 0 0 0 0 0 0 0 0 0
0 0 0 0 0 0 0 0 0 0 0 0 0 0 0 0 0 0 0 0 0 0 0 0 0 0 0 0 0 0 0 0 0 0 0 0 0 0 0 0 0 0 0 0
0 0 0 0 0 0 0 0 0 0 0 0 0 0 0 0 0 0 0 0 0 0 0 0 0 0 0 0 0 0 0 0 0 0 0 0 0 0 0 0 0 0 0 0
0 0 0 0 0 0 0 0 0 0 0 0 0 0 0 0 0 0 0 0 0 0 0 0 0 0 0 0 0 0 0 0 0 0 0 0 0 0 0 0 0 0 0 0
0 0 0 0 -0 -0 0 0 0 0 0 0 0 0 0 0 0 0 0 0 0 0 0 0 0 0 0 0 0 0 0 0 0 0 0 0 0 0 0 0 0 0 0 0
0 0 0 0 0 -0 0 0 0 0 0 0 0 0 0 0 0 0 0 0 0 0 0 0 0 0 0 0 0 0 0 0 0 0 0 0 0 0 0 0 0 0 0 0
Wind_Speed
2 2 4 8 9 9 7 8 10 10 8 5 8 11 11 15 12 10 9 10 11 10 8 8 8 10 9 9 10 9 7 6 6 4 3 2 1 1 2 2 1 1 2 3
3 5 13 11 8 6 4 4 5 7 9 6 4 2 7 12 16 17 17 15 14 11 9 8 6 6 7 7 7 6 6 5 4 3 3 2 2 1 1 1 2 3 3 3
2 6 6 2 3 5 5 4 4 4 7 9 9 8 2 3 5 10 14 14 13 15 14 10 8 8 8 7 7 7 7 6 5 4 3 3 3 2 2 3 2 3 3 4
3 5 8 5 5 7 5 6 2 4 6 5 5 4 7 3 3 3 6 7 8 7 7 7 8 9 9 8 8 7 7 6 6 5 4 4 2 1 1 0 1 3 4 5
4 4 4 3 1 1 4 6 2 2 3 3 4 1 7 8 8 6 3 2 4 5 4 4 5 7 7 7 7 7 7 6 6 5 5 5 3 2 0 1 3 4 4 5
5 4 2 2 2 2 3 4 7 6 6 4 4 1 3 6 9 9 8 10 10 8 6 5 5 4 4 4 5 5 6 6 5 5 5 6 5 3 1 1 2 3 3 4
4 5 3 0 4 6 6 6 6 7 6 4 5 2 2 6 9 10 10 10 9 7 5 4 4 3 2 3 4 4 5 4 4 5 5 5 5 4 2 1 2 3 3 3
0 5 4 1 3 1 3 7 6 4 4 5 5 3 3 5 6 6 6 5 6 5 4 4 4 4 4 4 4 3 4 5 5 5 5 4 4 2 1 1 2 3 3 3
3 3 3 2 2 3 3 3 5 6 1 2 4 1 3 3 2 2 2 1 1 3 3 2 2 1 1 2 1 4 5 4 3 3 4 3 3 2 1 2 2 3 3 3
2 2 4 2 6 7 6 5 6 5 1 3 5 5 4 5 6 5 4 5 5 4 4 5 5 4 2 3 2 3 4 3 1 2 2 3 3 2 2 2 3 4 4 3
3 2 5 4 1 6 4 5 7 5 5 5 4 8 9 10 8 8 8 8 6 5 4 5 5 3 2 2 3 3 3 3 1 0 2 5 4 3 2 1 2 3 4 4
3 5 1 5 6 4 6 7 8 7 6 6 4 12 10 7 7 7 8 7 6 5 3 5 5 2 2 3 3 4 3 3 2 2 4 5 5 4 3 1 1 2 4 3
6 7 3 8 8 4 4 4 5 6 6 5 6 11 5 4 6 7 8 8 7 5 3 1 1 3 3 4 5 5 4 3 3 3 3 4 5 4 3 2 2 2 2 4
7 5 7 8 8 5 4 4 6 7 6 6 10 13 8 6 7 8 9 9 7 3 3 3 3 4 4 5 5 4 4 3 3 2 2 4 4 4 3 3 2 1 3 4
6 5 6 6 7 6 7 7 8 8 10 10 10 10 12 8 7 7 7 6 5 4 3 3 2 2 3 4 3 3 3 2 2 2 2 3 3 3 2 1 1 2 3 3
3 4 2 3 5 6 10 9 7 10 8 9 7 9 7 3 2 3 4 4 4 4 5 5 3 2 2 3 2 2 2 2 2 3 2 3 3 3 3 3 3 4 4 4
4 6 4 4 5 6 9 9 8 5 5 7 8 9 5 4 5 6 6 6 6 5 5 5 5 3 2 1 1 1 1 1 2 3 3 4 4 5 4 4 4 4 3 3
8 6 4 3 2 6 11 7 6 6 6 6 6 5 7 8 6 6 7 7 7 5 4 4 4 4 3 2 1 1 1 0 2 2 3 3 4 5 4 4 4 3 3 3
10 9 5 4 4 7 8 6 6 6 5 5 6 6 7 5 2 4 8 9 8 6 5 4 5 5 4 4 3 2 1 2 3 4 3 3 4 4 3 3 2 2 3 4
3 6 6 4 5 8 10 5 5 5 4 5 6 7 6 7 3 8 8 8 7 6 5 5 4 3 3 4 3 3 3 4 4 3 3 3 3 3 3 2 1 1 3 4
2 0 4 6 7 9 8 6 6 4 10 8 9 8 8 11 12 8 6 8 7 7 6 5 4 2 3 4 5 4 4 4 4 4 4 4 3 2 2 2 1 2 3 4
4 4 5 4 4 9 7 6 8 12 7 10 10 9 9 10 9 5 8 9 9 8 7 6 4 3 3 5 6 6 4 3 4 4 4 3 2 0 1 2 2 3 5 5
5 7 6 7 9 8 5 8 9 8 9 10 10 9 7 8 9 9 9 10 10 10 8 6 5 5 4 5 7 7 5 4 5 5 4 3 2 1 1 2 3 4 4 4
6 3 2 5 7 7 8 8 6 8 10 11 11 9 9 10 11 10 10 9 8 7 7 6 6 7 6 5 6 7 6 5 6 6 4 3 2 3 3 3 3 4 5 5
8 4 5 8 9 9 8 7 6 6 8 9 10 10 11 14 13 13 11 9 8 7 6 7 8 8 8 7 7 6 6 6 6 5 4 3 2 3 4 4 3 4 3 5
8 9 10 11 11 8 9 9 10 7 9 12 12 10 9 13 15 15 12 10 9 9 8 8 8 8 8 8 8 7 7 7 7 5 4 3 2 2 3 4 4 6 4 5
Wind_Direction
244 118 235 235 220 218 251 271 277 273 273 281 262 245 196 174 173 167 167 169 169 164 160 159 168 184 186 185 179 177 165 162 158 151 153 160 188 235 239 235 260 346 313 300
350 252 241 242 248 243 263 283 301 310 325 343 330 24 148 169 181 183 180 180 175 163 161 163 166 171 176 172 160 148 140 136 137 124 126 137 146 156 135 56 48 33 4 333
264 261 270 288 3 357 329 315 311 325 345 15 19 355 47 187 201 203 195 187 180 173 169 161 142 130 123 116 112 109 111 112 109 111 112 94 78 57 44 40 15 338 335 326
322 354 14 7 22 23 331 320 340 45 44 347 39 334 314 12 38 243 226 203 198 180 155 142 127 116 111 108 103 102 102 104 109 105 97 99 103 100 94 191 305 320 345 336
294 326 358 28 71 38 276 300 326 63 84 19 22 90 299 5 10 328 285 46 23 22 42 82 102 111 115 121 123 124 117 119 122 119 116 106 100 102 84 8 350 340 329 326
247 273 270 263 272 238 289 8 15 35 58 6 304 287 299 17 349 343 31 44 34 24 26 34 42 59 87 106 119 133 136 140 133 118 113 119 118 107 76 339 320 315 315 320
306 303 270 11 330 341 50 67 25 8 12 277 325 21 77 38 29 34 40 38 32 16 11 29 44 37 38 74 96 126 139 126 115 117 125 133 132 125 132 244 304 322 324 315
0 304 281 254 188 262 35 111 142 186 230 281 327 307 93 79 72 60 51 35 25 1 348 351 4 9 10 22 52 84 116 117 127 135 138 133 120 108 84 21 348 327 303 292
168 265 307 264 181 118 99 105 158 138 195 275 288 359 135 152 130 117 110 80 284 280 268 256 263 268 27 350 37 95 110 115 133 141 127 116 109 95 41 329 323 308 297 301
137 267 311 2 70 42 107 130 84 96 160 273 298 298 262 235 224 228 233 237 249 271 272 256 238 225 177 175 155 117 117 121 147 156 137 133 142 162 214 262 288 293 296 302
96 122 314 357 167 173 120 81 94 98 137 164 242 258 235 227 215 215 232 243 250 254 268 268 251 224 175 146 139 129 111 92 48 96 143 141 150 156 156 185 284 296 294 294
119 108 317 295 299 171 144 150 141 151 201 192 205 256 253 234 220 211 223 226 225 222 237 271 260 209 144 113 100 93 82 72 57 77 136 147 148 142 142 174 275 307 316 303
123 101 35 338 339 8 87 143 152 133 137 174 197 260 274 231 227 229 223 215 210 202 179 223 209 137 116 93 85 82 62 41 31 58 141 152 152 153 167 231 283 334 37 61
107 120 160 200 228 252 265 217 169 139 163 208 227 250 272 259 244 249 238 226 223 214 167 152 152 145 134 120 110 93 59 38 33 53 126 154 168 179 195 232 271 51 99 94
98 159 203 225 251 272 284 277 200 188 192 197 233 242 256 257 250 251 236 220 212 191 156 138 147 156 132 122 119 102 73 58 51 67 103 151 174 175 181 208 151 125 115 97
116 159 175 279 275 294 293 283 230 207 202 214 236 257 246 238 246 235 206 193 197 192 169 147 126 120 127 134 133 101 70 59 63 67 67 90 98 95 87 100 110 105 103 102
179 155 153 248 263 303 278 246 211 201 199 196 227 245 225 223 230 225 219 216 215 215 202 173 157 151 151 169 155 131 346 28 76 90 87 92 94 89 84 84 81 77 82 95
179 163 162 215 288 241 245 251 203 199 215 208 218 226 207 216 221 226 216 210 216 211 193 157 149 162 183 206 226 247 313 28 112 123 115 115 104 97 91 84 75 60 55 69
180 162 158 168 217 263 273 245 200 191 227 211 203 218 221 205 152 263 224 203 199 191 169 161 167 180 192 201 208 212 233 133 122 125 119 122 128 125 122 112 93 70 75 77
133 133 146 169 205 239 250 240 153 120 254 226 197 216 208 144 173 250 222 197 189 171 157 167 176 179 192 204 178 154 140 128 133 137 125 118 129 142 158 171 154 88 95 106
38 134 186 205 224 253 251 181 137 176 238 216 209 214 187 185 209 228 187 173 172 169 179 185 185 193 202 172 138 131 127 139 150 138 125 117 110 150 191 189 167 119 111 111
234 218 223 212 228 258 228 185 191 214 206 194 206 213 202 212 216 190 164 163 165 172 186 189 182 195 178 144 131 135 147 151 136 130 130 122 90 90 176 162 141 119 121 116
230 204 201 202 220 248 249 231 226 184 182 197 202 209 195 182 180 173 170 171 177 182 188 182 174 182 178 154 146 156 174 153 129 121 122 123 95 54 99 132 126 122 125 122
272 243 227 275 272 283 281 267 248 206 199 193 192 194 173 176 179 176 177 183 188 188 184 172 165 173 181 176 169 170 169 152 135 136 140 136 106 75 68 76 106 127 135 130
227 251 261 266 270 283 283 280 282 257 219 196 195 192 184 178 180 181 182 187 188 183 175 164 167 175 179 172 171 172 165 150 148 154 161 158 130 110 91 71 67 103 133 157
226 230 239 251 245 238 252 260 272 268 224 206 196 197 185 178 181 181 183 182 179 176 169 167 168 171 173 168 173 180 173 161 159 167 178 181 163 138 128 113 77 52 85 117